#timestamp,LO_Frequency,Hit 
1500541215.0,286047000.6,N
1500541215.9,286047000.6,N
1500541235.8,286047000.0,N
1500541255.6,286047000.0,N
1500541275.4,286047001.1,N
1500541295.3,286047000.5,N
1500541315.1,286047002.6,N
1500541335.9,286047000.3,N
1500541355.7,286046998.4,N
1500541375.5,286046999.0,N
1500541395.4,286047000.1,N
1500541415.2,286046999.7,N
1500541435.0,286047002.3,N
1500541435.9,286047002.3,N
1500541455.8,286047000.2,N
1500541475.6,286046999.9,N
1500541495.5,286047000.0,N
1500541515.3,286047000.6,N
1500541535.1,286047000.9,N
1500541555.9,286046998.2,N
1500541575.7,286046998.3,N
1500541595.5,286046998.5,N
1500541615.4,286047000.2,N
1500541635.2,286047000.1,N
1500541655.1,286047001.2,N
1500541656.0,286047001.2,N
1500541675.8,286047000.6,N
1500541695.6,286047000.9,N
1500541715.5,286047000.9,N
1500541735.3,286046998.4,N
1500541755.1,286047001.1,N
1500541775.9,286047000.8,N
1500541795.7,286046998.5,N
1500541815.6,286047001.0,N
1500541835.4,286047000.6,N
1500541855.2,286047000.7,N
1500541875.1,286046998.3,N
1500541876.0,286046998.3,N
1500541895.8,286046997.0,N
1500541915.6,286046998.0,N
1500541935.5,286046996.8,N
1500541955.3,286046997.6,N
1500541975.2,286046997.1,N
1500541995.9,286046995.3,N
1500542015.7,286046995.1,N
1500542035.6,286046993.4,N
1500542055.4,286046994.5,N
1500542075.2,286046994.8,N
1500542095.1,286046992.1,N
1500542096.0,286046992.1,N
1500542115.8,286046994.4,N
1500542135.7,286046994.2,N
1500542155.5,286046992.0,N
1500542175.3,286046991.7,N
1500542195.2,286046991.9,N
1500542215.0,286046992.8,N
1500542215.9,286046992.8,N
1500542235.8,286046990.9,N
1500542255.6,286046992.6,N
1500542275.4,286046992.8,N
1500542295.3,286046991.8,N
1500542315.1,286046993.0,N
1500542335.8,286046992.2,N
1500542355.7,286046992.1,N
1500542375.5,286046993.2,N
1500542395.4,286046991.9,N
1500542415.2,286046991.9,N
1500542435.0,286046992.2,N
1500542435.9,286046992.2,N
1500542455.8,286046991.8,N
1500542475.6,286046992.1,N
1500542495.4,286046994.4,N
1500542515.3,286046992.7,N
1500542535.1,286046987.5,N
1500542555.9,286046985.3,N
1500542575.7,286046991.6,N
1500542595.5,286046989.4,N
1500542615.4,286046989.1,N
1500542635.2,286046989.6,N
1500542655.0,286046989.8,N
1500542655.9,286046989.8,N
1500542675.8,286046989.0,N
1500542695.6,286046989.3,N
1500542715.5,286046989.4,N
1500542735.3,286046989.1,N
1500542755.1,286046991.4,N
1500542775.9,286046988.9,N
1500542795.7,286046989.4,N
1500542815.5,286046987.3,N
1500542835.4,286046987.3,N
1500542855.2,286046989.1,N
1500542875.0,286046989.2,N
1500542876.0,286046989.2,N
1500542895.8,286046987.5,N
1500542915.6,286046987.4,N
1500542935.5,286046987.6,N
1500542955.3,286046987.6,N
1500542975.1,286046987.9,N
1500542995.9,286046987.0,N
1500543015.7,286046985.5,N
1500543035.5,286046988.1,N
1500543055.4,286046988.2,N
1500543075.2,286046988.3,N
1500543095.1,286046987.4,N
1500543096.0,286046987.4,N
1500543115.8,286046987.5,N
1500543135.6,286046987.8,N
1500543155.5,286046989.6,N
1500543175.3,286046987.6,N
1500543195.1,286046986.1,N
1500543215.9,286046987.1,N
1500543235.7,286046987.3,N
1500543255.6,286046987.2,N
1500543275.4,286046985.4,N
1500543295.2,286046985.5,N
1500543315.1,286046987.7,N
1500543316.0,286046987.7,N
1500543335.8,286046987.8,N
1500543355.7,286046987.9,N
1500543375.5,286046988.0,N
1500543395.3,286046985.7,N
1500543415.2,286046986.1,N
1500543435.9,286046984.9,N
1500543455.7,286046985.3,N
1500543475.6,286046985.9,N
1500543495.4,286046986.6,N
1500543515.3,286046986.2,N
1500543535.1,286046983.8,N
1500543536.0,286046983.8,N
1500543555.8,286046983.3,N
1500543575.7,286046983.3,N
1500543595.5,286046982.6,N
1500543615.3,286046984.4,N
1500543635.2,286046980.6,N
1500543655.0,286046981.8,N
1500543655.9,286046981.8,N
1500543675.8,286046983.3,N
1500543695.6,286046980.6,N
1500543715.4,286046983.1,N
1500543735.3,286046977.5,N
1500543755.1,286046976.7,N
1500543775.8,286046978.1,N
1500543795.7,286046978.5,N
1500543815.5,286046974.4,N
1500543835.4,286046974.2,N
1500543855.2,286046977.2,N
1500543875.0,286046974.2,N
1500543875.9,286046974.2,N
1500543895.8,286046974.6,N
1500543915.6,286046974.2,N
1500543935.5,286046978.1,N
1500543955.3,286046980.3,N
1500543975.1,286046976.1,N
1500543995.9,286046975.5,N
1500544015.7,286046974.7,N
1500544035.5,286046974.3,N
1500544055.4,286046972.9,N
1500544075.2,286046969.4,N
1500544095.1,286046973.6,N
1500544096.0,286046973.6,N
1500544115.8,286046973.2,N
1500544135.6,286046971.0,N
1500544155.5,286046973.9,N
1500544175.3,286046972.8,N
1500544195.2,286046972.6,N
1500544215.9,286046971.7,N
1500544235.7,286046973.7,N
1500544255.6,286046971.6,N
1500544275.4,286046971.6,N
1500544295.2,286046971.7,N
1500544315.1,286046972.2,N
1500544316.0,286046972.2,N
1500544335.8,286046971.8,N
1500544355.7,286046969.9,N
1500544375.5,286046966.7,N
1500544395.3,286046967.4,N
1500544415.2,286046968.0,N
1500544435.0,286046969.0,N
1500544435.9,286046969.0,N
1500544455.7,286046967.2,N
1500544475.6,286046962.1,N
1500544495.4,286046959.7,N
1500544515.3,286046962.0,N
1500544535.1,286046960.7,N
1500544536.0,286046960.7,N
1500544555.8,286046958.3,N
1500544575.7,286046960.0,N
1500544595.5,286046962.6,N
1500544615.4,286046961.1,N
1500544635.2,286046960.6,N
1500544655.0,286046959.7,N
1500544655.9,286046959.7,N
1500544675.8,286046961.7,N
1500544695.6,286046964.0,N
1500544715.4,286046963.3,N
1500544735.3,286046964.3,N
1500544755.1,286046964.0,N
1500544775.9,286046965.5,N
1500544795.7,286046965.0,N
